Latest Weather Observations for Mount Ginini

IDN60901

Issued at 7:21 pm EST Saturday 2 July 2016 (issued every 10 minutes, with the page automatically refreshed every 10 minutes)

About weather observations | Map of Canberra area stations | Latest observations for Canberra area | Other Formats
Station Details ID: 070349 Name: MOUNT GININI AWS Lat: -35.53 Lon: 148.77 Height: 1760.0 m
Data from the previous 72 hours. | See also: Recent months at Mount Ginini
Date/Time
EST
Temp
°C
App
Temp
°C
Dew
Point
°C
Rel
Hum
%
Delta-T
°C
Wind Press
QNH
hPa
Press
MSL
hPa
Rain since
9am
mm
Dir  Spd
km/h
Gust
km/h
Spd
kts
Gust
kts
02/07:00pm -1.4 -8.9 -1.7 98 0.0 SW 28 41 15 22 - - 0.0
02/06:30pm -1.3 -8.1 -1.6 98 0.0 SW 24 37 13 20 - - 0.0
02/06:00pm -1.2 -8.7 -1.5 98 0.1 SW 28 39 15 21 - - 0.0
02/05:30pm -1.5 -9.1 -1.8 98 0.0 SW 28 41 15 22 - - 0.0
02/05:00pm -1.3 -8.8 -1.6 98 0.0 SW 28 41 15 22 - - 0.0
02/04:30pm -1.2 -8.7 -1.5 98 0.1 SW 28 37 15 20 - - 0.0
02/04:00pm -0.8 -7.5 -1.1 98 0.1 SW 24 41 13 22 - - 0.0
02/03:30pm -0.8 -7.9 -1.1 98 0.1 SW 26 41 14 22 - - 0.0
02/03:00pm -0.6 -8.0 -0.9 98 0.1 SW 28 44 15 24 - - 0.0
02/02:30pm -0.6 -8.4 -0.9 98 0.1 SW 30 44 16 24 - - 0.0
02/02:00pm -0.6 -8.0 -0.9 98 0.1 SW 28 43 15 23 - - 0.0
02/01:30pm -0.3 -7.3 -0.6 98 0.1 SW 26 44 14 24 - - 0.0
02/01:00pm -0.2 -7.6 -0.5 98 0.1 SW 28 43 15 23 - - 0.0
02/12:30pm -0.4 -7.4 -0.7 98 0.1 SW 26 39 14 21 - - 0.0
02/12:19pm -0.6 -8.0 -0.9 98 0.1 SW 28 50 15 27 - - 0.0
02/12:00pm -0.4 -7.0 -0.7 98 0.1 SW 24 37 13 20 - - 0.0
02/11:30am -0.1 -7.1 -0.4 98 0.1 SW 26 39 14 21 - - 0.0
02/11:00am -0.3 -6.9 -0.4 99 0.0 SW 24 43 13 23 - - 0.0
02/10:30am -0.4 -7.0 -0.7 98 0.1 SW 24 41 13 22 - - 0.0
02/10:00am -0.6 -6.5 -0.9 98 0.1 SW 20 32 11 17 - - 0.0
02/09:30am -0.9 -6.7 -1.2 98 0.1 SW 19 26 10 14 - - 0.0
02/09:00am -1.3 -8.1 -1.6 98 0.0 SSW 24 37 13 20 - - 0.2
02/08:30am -1.7 -9.3 -2.0 98 0.0 SSW 28 41 15 22 - - 0.2
02/08:00am -2.0 -8.9 -2.3 98 0.0 SW 24 37 13 20 - - 0.2
02/07:30am -2.2 -9.1 -2.5 98 0.0 SW 24 35 13 19 - - 0.2
02/07:00am -2.4 -10.4 -2.7 98 0.0 SSW 30 41 16 22 - - 0.2
02/06:30am -2.3 -10.3 -2.6 98 0.0 SW 30 46 16 25 - - 0.2
02/06:25am -2.3 -10.0 -2.6 98 0.0 SW 28 46 15 25 - - 0.2
02/06:00am -2.5 -9.4 -2.8 98 0.0 SW 24 35 13 19 - - 0.2
02/05:30am -2.6 -8.8 -2.9 98 0.0 SSW 20 32 11 17 - - 0.2
02/05:00am -2.7 -9.3 -3.0 98 0.0 SSW 22 32 12 17 - - 0.2
02/04:30am -2.9 -10.2 -3.2 98 0.0 SSW 26 37 14 20 - - 0.2
02/04:00am -2.8 -9.8 -3.1 98 0.0 SSW 24 35 13 19 - - 0.2
02/03:30am -2.9 -9.5 -3.2 98 0.0 SSW 22 30 12 16 - - 0.2
02/03:00am -2.5 -8.1 -2.8 98 0.0 SW 17 22 9 12 - - 0.2
02/02:30am -2.4 -8.0 -2.7 98 0.0 SW 17 24 9 13 - - 0.2
02/02:00am -2.3 -7.9 -2.6 98 0.0 SW 17 24 9 13 - - 0.2
02/01:30am -2.2 -7.8 -2.5 98 0.0 SW 17 26 9 14 - - 0.2
02/01:00am -2.2 -8.3 -2.5 98 0.0 SW 20 28 11 15 - - 0.2
02/12:30am -2.2 -7.8 -2.5 98 0.0 WSW 17 26 9 14 - - 0.2
02/12:00am -2.3 -8.2 -2.6 98 0.0 SW 19 28 10 15 - - 0.2
 
Date/Time
EST
Temp
°C
App
Temp
°C
Dew
Point
°C
Rel
Hum
%
Delta-T
°C
Wind Press
QNH
hPa
Press
MSL
hPa
Rain since
9am
mm
Dir  Spd
km/h
Gust
km/h
Spd
kts
Gust
kts
01/11:30pm -2.2 -8.1 -2.5 98 0.0 SW 19 26 10 14 - - 0.2
01/11:00pm -2.3 -8.2 -2.6 98 0.0 SSW 19 28 10 15 - - 0.2
01/10:30pm -2.3 -9.6 -2.6 98 0.0 SW 26 37 14 20 - - 0.2
01/10:00pm -2.2 -8.7 -2.5 98 0.0 SW 22 41 12 22 - - 0.2
01/09:30pm -2.3 -9.2 -2.6 98 0.0 SW 24 37 13 20 - - 0.2
01/09:00pm -2.3 -9.2 -2.6 98 0.0 SSW 24 35 13 19 - - 0.2
01/08:30pm -2.5 -9.4 -2.8 98 0.0 SW 24 33 13 18 - - 0.2
01/08:00pm -2.8 -8.8 -3.1 98 0.0 SW 19 24 10 13 - - 0.2
01/07:30pm -2.9 -8.9 -3.2 98 0.0 SW 19 24 10 13 - - 0.2
01/07:00pm -2.8 -7.7 -3.1 98 0.0 SSW 13 19 7 10 - - 0.2
01/06:30pm -2.8 -8.4 -3.1 98 0.0 SSW 17 26 9 14 - - 0.2
01/06:00pm -2.4 -8.4 -2.7 98 0.0 SSW 19 26 10 14 - - 0.2
01/05:30pm -2.0 -8.1 -2.3 98 0.0 SSW 20 28 11 15 - - 0.2
01/05:00pm -1.5 -7.3 -1.8 98 0.0 SSW 19 26 10 14 - - 0.2
01/04:30pm -1.1 -5.0 -1.2 99 0.0 SW 9 17 5 9 - - 0.2
01/04:00pm -0.7 -3.9 -0.8 99 0.0 SW 6 11 3 6 - - 0.2
01/03:30pm -0.5 -4.3 -0.6 99 0.0 SSW 9 17 5 9 - - 0.2
01/03:00pm -0.5 -5.4 -0.6 99 0.0 SSW 15 22 8 12 - - 0.2
01/02:30pm -0.2 -3.6 -0.3 99 0.0 SSW 7 15 4 8 - - 0.2
01/02:00pm -0.5 -3.9 -0.6 99 0.0 SSW 7 17 4 9 - - 0.2
01/01:30pm -0.5 -3.9 -0.6 99 0.0 SW 7 17 4 9 - - 0.2
01/01:00pm -0.7 -5.3 -0.8 99 0.0 S 13 20 7 11 - - 0.2
01/12:30pm -1.5 -6.6 -1.6 99 0.0 SW 15 24 8 13 - - 0.2
01/12:00pm -1.6 -7.6 -1.7 99 0.0 S 20 43 11 23 - - 0.2
01/11:30am -2.4 -6.5 -2.7 98 0.0 SSW 9 15 5 8 - - 0.2
01/11:00am -2.9 -7.0 -3.2 98 0.0 SSW 9 11 5 6 - - 0.2
01/10:30am -3.2 -7.4 -3.5 98 0.0 SSW 9 13 5 7 - - 0.2
01/10:00am -3.5 -8.8 -3.8 98 -0.1 SSW 15 20 8 11 - - 0.0
01/09:30am -3.8 -9.2 -4.1 98 -0.1 SSW 15 22 8 12 - - 0.0
01/09:00am -3.7 -7.9 -4.0 98 -0.1 SW 9 19 5 10 - - 11.2
01/08:30am -3.7 -8.7 -4.0 98 -0.1 SW 13 20 7 11 - - 11.2
01/08:00am -3.7 -8.7 -4.0 98 -0.1 WSW 13 20 7 11 - - 10.8
01/07:30am -3.7 -9.0 -4.0 98 -0.1 WSW 15 28 8 15 - - 10.6
01/07:00am -3.8 -8.8 -4.1 98 -0.1 W 13 19 7 10 - - 10.4
01/06:30am -3.8 -8.8 -4.1 98 -0.1 W 13 19 7 10 - - 10.2
01/06:00am -3.8 -8.4 -4.1 98 -0.1 WSW 11 19 6 10 - - 10.0
01/05:30am -3.8 -8.0 -4.1 98 -0.1 WSW 9 17 5 9 - - 9.6
01/05:00am -3.9 -8.1 -4.2 98 -0.1 WSW 9 24 5 13 - - 9.4
01/04:30am -4.1 -9.1 -4.4 98 -0.1 WSW 13 26 7 14 - - 9.2
01/04:00am -4.1 -9.9 -4.4 98 -0.1 W 17 32 9 17 - - 9.2
01/03:30am -4.1 -10.4 -4.4 98 -0.1 W 20 33 11 18 - - 9.2
01/03:00am -4.0 -10.7 -4.3 98 -0.1 W 22 41 12 22 - - 9.2
01/02:30am -3.9 -10.0 -4.2 98 -0.1 W 19 41 10 22 - - 9.2
01/02:00am -3.9 -8.9 -4.2 98 -0.1 W 13 30 7 16 - - 9.0
01/01:30am -3.6 -8.6 -3.9 98 -0.1 WSW 13 28 7 15 - - 8.8
01/01:00am -3.6 -8.6 -3.9 98 -0.1 WSW 13 26 7 14 - - 8.2
01/12:30am -3.2 -8.9 -3.5 98 0.0 WSW 17 33 9 18 - - 8.0
01/12:00am -2.7 -7.9 -3.0 98 0.0 WSW 15 32 8 17 - - 7.0
 
Date/Time
EST
Temp
°C
App
Temp
°C
Dew
Point
°C
Rel
Hum
%
Delta-T
°C
Wind Press
QNH
hPa
Press
MSL
hPa
Rain since
9am
mm
Dir  Spd
km/h
Gust
km/h
Spd
kts
Gust
kts
30/11:30pm -2.4 -8.0 -2.5 99 -0.1 W 17 39 9 21 - - 5.8
30/11:00pm -1.5 -7.5 -1.6 99 0.0 NW 20 32 11 17 - - 4.8
30/10:30pm -1.0 -8.1 -1.1 99 0.0 NW 26 46 14 25 - - 3.8
30/10:00pm -0.8 -7.9 -0.9 99 0.0 NW 26 52 14 28 - - 3.0
30/09:30pm -1.0 -8.5 -1.1 99 0.0 NW 28 52 15 28 - - 2.4
30/09:02pm -1.2 -9.1 -1.3 99 0.0 WNW 30 48 16 26 - - 1.8
30/09:00pm -1.2 -9.1 -1.3 99 0.0 WNW 30 46 16 25 - - 1.6
30/08:30pm -1.5 -10.0 -1.6 99 0.0 WNW 33 57 18 31 - - 1.2
30/08:00pm -1.6 -9.5 -1.7 99 0.0 WNW 30 50 16 27 - - 0.8
30/07:30pm -2.0 -10.0 -2.1 99 -0.1 WNW 30 57 16 31 - - 0.4
30/07:00pm -2.2 -9.8 -2.3 99 -0.1 WNW 28 48 15 26 - - 0.2
30/06:30pm -2.4 -10.0 -2.5 99 -0.1 WNW 28 46 15 25 - - 0.2
30/06:22pm -2.4 -10.1 -2.7 98 0.0 WNW 28 46 15 25 - - 0.2
30/06:00pm -2.6 -9.2 -2.9 98 0.0 WNW 22 43 12 23 - - 0.0
30/05:30pm -2.8 -9.8 -3.1 98 0.0 WNW 24 43 13 23 - - 0.0
30/05:05pm -2.9 -10.6 -3.2 98 0.0 WNW 28 46 15 25 - - 0.0
30/05:00pm -2.9 -10.2 -3.2 98 0.0 WNW 26 43 14 23 - - 0.0
30/04:30pm -3.0 -10.0 -3.3 98 0.0 WNW 24 46 13 25 - - 0.0
30/04:00pm -2.9 -9.1 -3.2 98 0.0 WNW 20 41 11 22 - - 0.0
30/03:30pm -2.9 -9.5 -3.2 98 0.0 WNW 22 41 12 22 - - 0.0
30/03:00pm -2.9 -9.9 -3.2 98 0.0 WNW 24 43 13 23 - - 0.0
30/02:30pm -2.7 -10.4 -3.0 98 0.0 WNW 28 48 15 26 - - 0.0
30/02:09pm -2.8 -10.5 -3.1 98 0.0 WNW 28 52 15 28 - - 0.0
30/02:00pm -2.9 -9.9 -3.2 98 0.0 WNW 24 43 13 23 - - 0.0
30/01:30pm -2.8 -9.8 -3.1 98 0.0 WNW 24 43 13 23 - - 0.0
30/01:04pm -2.7 -10.4 -3.0 98 0.0 WNW 28 46 15 25 - - 0.0
30/01:00pm -2.7 -9.6 -3.0 98 0.0 WNW 24 46 13 25 - - 0.0
30/12:48pm -2.7 -10.4 -3.0 98 0.0 WNW 28 46 15 25 - - 0.0
30/12:30pm -2.7 -9.6 -3.0 98 0.0 WNW 24 41 13 22 - - 0.0
30/12:00pm -2.6 -10.3 -2.9 98 0.0 WNW 28 48 15 26 - - 0.0
30/11:54am -2.7 -10.4 -3.0 98 0.0 NW 28 48 15 26 - - 0.0
30/11:30am -2.5 -9.4 -2.8 98 0.0 WNW 24 52 13 28 - - 0.0
30/11:00am -2.5 -9.4 -2.8 98 0.0 NW 24 43 13 23 - - 0.0
30/10:30am -2.6 -8.8 -2.9 98 0.0 WNW 20 37 11 20 - - 0.0
30/10:00am -2.6 -8.8 -2.9 98 0.0 WNW 20 32 11 17 - - 0.0
30/09:30am -2.8 -9.4 -3.1 98 0.0 WNW 22 43 12 23 - - 0.0
30/09:00am -2.8 -9.0 -3.1 98 0.0 WNW 20 39 11 21 - - 0.0
30/08:30am -2.5 -8.5 -2.8 98 0.0 NW 19 37 10 20 - - 0.0
30/08:00am -2.6 -9.5 -2.9 98 0.0 WNW 24 39 13 21 - - 0.0
30/07:38am -2.6 -10.3 -3.0 97 0.0 NW 28 46 15 25 - - 0.0
30/07:30am -2.5 -9.1 -2.9 97 0.0 NW 22 41 12 22 - - 0.0
30/07:00am -2.8 -9.4 -3.3 96 0.0 NW 22 35 12 19 - - 0.0
30/06:30am -2.8 -9.4 -3.5 95 0.1 NW 22 37 12 20 - - 0.0
30/06:00am -2.7 -9.3 -3.4 95 0.1 NW 22 39 12 21 - - 0.0
30/05:30am -2.3 -9.5 -5.1 81 0.9 NW 24 41 13 22 - - 0.0
30/05:00am -1.9 -9.2 -6.4 71 1.4 NW 24 41 13 22 - - 0.0
30/04:30am -1.4 -8.8 -7.9 61 2.1 NW 24 41 13 22 - - 0.0
30/04:00am -1.6 -8.5 -6.3 70 1.5 NW 22 39 12 21 - - 0.0
30/03:30am -1.5 -8.8 -6.2 70 1.5 NW 24 43 13 23 - - 0.0
30/03:00am -1.5 -8.4 -6.1 71 1.5 NW 22 37 12 20 - - 0.0
30/02:30am -1.0 -8.3 -6.5 66 1.8 NW 24 39 13 21 - - 0.0
30/02:00am -0.6 -7.6 -7.0 62 2.1 NNW 22 39 12 21 - - 0.0
30/01:30am -0.3 -7.6 -6.7 62 2.2 NNW 24 44 13 24 - - 0.0
30/01:00am -0.2 -6.8 -7.2 59 2.4 NNW 20 33 11 18 - - 0.0
30/12:30am -0.3 -6.7 -7.3 59 2.3 NNW 19 35 10 19 - - 0.0
30/12:00am 0.1 -6.4 -7.8 55 2.6 NNW 19 32 10 17 - - 0.0
 
Date/Time
EST
Temp
°C
App
Temp
°C
Dew
Point
°C
Rel
Hum
%
Delta-T
°C
Wind Press
QNH
hPa
Press
MSL
hPa
Rain since
9am
mm
Dir  Spd
km/h
Gust
km/h
Spd
kts
Gust
kts
29/11:30pm 0.1 -6.0 -7.6 56 2.6 NNW 17 32 9 17 - - 0.0
29/11:00pm 0.1 -6.0 -7.2 58 2.5 N 17 30 9 16 - - 0.0
29/10:30pm 0.0 -5.6 -6.8 60 2.3 N 15 26 8 14 - - 0.0
29/10:00pm -0.4 -5.6 -5.8 67 1.9 N 13 24 7 13 - - 0.0
29/09:30pm -0.3 -5.5 -5.9 66 1.9 N 13 26 7 14 - - 0.0
29/09:00pm -0.2 -5.3 -5.0 70 1.7 NNW 13 20 7 11 - - 0.0
29/08:30pm -0.3 -5.6 -3.8 77 1.3 NNW 15 22 8 12 - - 0.0
29/08:00pm -0.3 -4.9 -1.3 93 0.4 NNW 13 22 7 12 - - 0.0
29/07:30pm -0.6 -4.5 -1.3 95 0.2 N 9 15 5 8 - - 0.0

Latest Capital City Observations: Canberra | Sydney | Melbourne | Brisbane | Adelaide | Perth | Hobart | Darwin

Other Formats:

Comma delimited format used in spreadsheet applications
http://www.bom.gov.au/fwo/IDN60903/IDN60903.95925.axf

JavaScript Object Notation format (JSON) in row-major order
http://www.bom.gov.au/fwo/IDN60903/IDN60903.95925.json